STARLINK-30805, 58214

Orbit data source: Space-Track

STARLINK-30805, 58214 is a payload satellite owned by SpaceX/Seattle (US) in LEO that was launched on Fri, 03 Nov 2023 UTC via an FALCON 9 launch vehicle from the Air Force Eastern Test Range (AFETR). Payload-class satellites include a variety of spacecraft equipped with specific instruments for various scientific and technological missions. These include communications satellites like Starlink; space stations such as the ISS; scientific satellites like the Hubble; Earth observation satellites from companies like Planet Labs, Umbra, and HawkEye 360; GPS; miniature CubeSats for education and research; and military/defense satellites.

Loading next visibility...
Identifier
58214, 2023-170J
Orbit
LEO
Country
Flag of USUS
Related business
Manufacturer
SpaceX/Seattle
Mission
Operational Commercial Communications
Bus & Motor
STARLINK V2M, Unknown motor
Mass
730 kg wet, ~700 kg dry
Launch date (UTC)
2023-11-03 (3 years ago)
Launch vehicle
FALCON 9
Launch site
Air Force Eastern Test Range (AFETR)
Object type
Payload
Rocket body
Debris
Shape & HBR
Box + 2 Pan, 17.7 m
Radar Cross Section
33.884 m², Large (>1 m²)

Expand to show TLE details & history
Last TLE update: 2 days ago

TLE from 2 days ago
0 STARLINK-30805
1 58214U 23170J   26171.15610143  .00002834  00000-0  11246-3 0  9995
2 58214  43.0029 335.2705 0001235 275.0673  85.0038 15.27579968145975
Epoch: 2026-06-20T03:44Z
TLE epoch observation values (Epoch: 2026-06-20T03:44:47.163Z)
Latitude
Longitude
10.69922°
Altitude
482.751 km
Speed
7.626 km/s
True Right ascension
22h 21m 04s
True Declination
0° 00' 00"
Sunlit
Object was in partial shadow at epoch
Visualization orbit readout
Latitude
Unknown
Longitude
Unknown
Altitude
Unknown
Speed
Unknown
Apparent Right ascension
Unknown
Apparent Declination
Unknown
Sunlit
N/A
Visualization observer readout
Local Sidereal Time
21:48:30
Azimuth
Unknown
Elevation
Unknown
Doppler factor
Unknown
Orbital elements
Apogee altitude
485.841 km
Perigee altitude
484.146 km
Semi-major axis
6,863.131 km
Eccentricity
0.00012
Inclination
43.0029°
RAAN
335.2705°
Arg. of periapsis
275.0673°
True anomaly
85.0179°
Mean anomaly
85.0038°
Eccentric anomaly
85.01085°
Mean motion
3.81733 °/min
Orbital period
94.31 mins
BSTAR
0.00011246
Loading maneuver chart data...
Computing Atmospheric mass density...
Loading historical data...
Loading historical data...
Loading historical data...
Loading historical data...
Loading historical data...
Loading historical data...
Loading historical data...

Documentation

Showing up to 5 results
|